Monday, November 20, 2017, 4:15 AM GMT
Back to Local

CYOW, Ottawa Int'L. Ont.

Location: , , Canada Lat: 45.317
Local Time: 4:15 AM GMT ( 4:15 GMT) Lon: -75.667
Time Zone: GMT Elev: 380 ft

Show me the last for .
Show Coded

Time T Td Feel RH Dir Speed Gust Alt SLP Vis Weather Sky Remarks
2017-11-20 04:00 25 21 13 85 290° 13 - 29.69 29.71 15 BKN019 None
2017-11-20 03:38 25 21 11 85 280° 14 20 29.68 29.70 15 BKN020 None
2017-11-20 03:00 25 21 13 85 280° 13 - 29.67 29.69 15 FEW018 BKN088 None
2017-11-20 02:00 27 21 13 79 290° 13 20 29.65 29.67 15 FEW022 OVC092 None
2017-11-20 01:00 27 21 13 79 280° 13 21 29.63 29.66 15 SCT022 BKN075 BKN094 None
2017-11-20 00:00 27 19 10 73 300° 21 30 29.62 29.64 15 BKN027 None
2017-11-19 23:00 28 21 14 74 280° 15 24 29.60 29.62 15 BKN025 None
2017-11-19 22:00 28 23 14 79 280° 16 24 29.57 29.59 15 BKN022 None
2017-11-19 21:00 30 25 16 80 280° 15 26 29.54 29.56 15 BKN020 None
2017-11-19 20:00 30 23 16 74 290° 16 24 29.50 29.52 15 BKN027 Pressure rising rapidly
2017-11-19 19:00 30 25 16 80 290° 17 26 29.47 29.49 15 BKN023 None
2017-11-19 18:00 30 23 15 74 300° 24 32 29.43 29.45 15 BKN022 None
2017-11-19 17:00 28 23 13 79 290° 21 29 29.41 29.43 15 OVC020 None
2017-11-19 16:00 28 23 14 79 290° 18 25 29.40 29.41 15 OVC017 None
2017-11-19 15:00 28 23 12 79 290° 25 36 29.35 29.37 15 OVC020 None
2017-11-19 14:17 28 25 12 86 300° 22 32 29.32 29.34 15 FEW010 OVC027 Pressure rising rapidly
2017-11-19 14:00 28 25 13 86 300° 20 30 29.30 29.32 3 -SN FEW010 OVC022 Pressure rising rapidly
2017-11-19 13:48 28 25 13 86 300° 20 30 29.29 29.31 2 -SN SCT010 OVC020 None
2017-11-19 13:34 28 25 13 86 290° 20 28 29.28 29.30 1 -SN OVC010 Pressure rising rapidly
2017-11-19 13:25 28 27 12 92 300° 21 31 29.27 29.29 0 -SN OVC008 Pressure rising rapidly
2017-11-19 13:00 28 27 14 92 300° 24 - 29.24 29.26 0 SN VV005 None
2017-11-19 12:52 28 27 12 92 300° 17 31 29.24 29.26 0 -SN OVC006 Pressure rising rapidly
2017-11-19 12:41 28 27 15 92 300° 22 - 29.23 29.25 0 SN VV005 Pressure rising rapidly
2017-11-19 12:00 30 28 18 92 310° 18 - 29.19 29.21 0 -SN OVC008 Pressure rising rapidly
2017-11-19 11:18 30 28 17 92 320° 17 23 29.15 29.17 1 -SN OVC008 Pressure rising rapidly
2017-11-19 11:00 30 28 18 92 320° 18 - 29.13 29.15 1 -SN BR OVC006 None
2017-11-19 10:47 30 28 19 92 320° 16 - 29.14 29.16 1 -SN BR OVC008 None
2017-11-19 10:00 30 28 18 92 330° 17 - 29.14 29.15 5 -SN BR BKN006 OVC021 None
2017-11-19 09:00 32 30 23 92 320° 12 - 29.14 29.16 3 -SN BR OVC006 None
2017-11-19 08:44 32 30 23 92 330° 13 - 29.14 29.15 3 -SN BR OVC005 None
2017-11-19 08:19 32 30 24 92 340° 10 - 29.13 29.15 4 -FZRA -SN BR OVC003 None
2017-11-19 08:00 32 30 24 92 360° 10 - 29.14 29.16 5 -FZRA -PL BR OVC003 None
2017-11-19 07:00 32 30 19 92 40° 14 22 29.15 29.17 4 -FZRA BR OVC003 None
2017-11-19 06:00 30 30 19 100 50° 15 - 29.16 29.18 4 -FZRA BR OVC003 None
2017-11-19 05:00 30 28 19 92 50° 15 - 29.21 29.23 4 -FZRA BR OVC004 None
2017-11-19 04:45 30 28 18 92 50° 17 - 29.20 29.22 4 -FZRA BR OVC004 Pressure falling rapidly

Support USWX by starting your Amazon purchase here.